Temp
75 75 74 74 62 57 54 61 69 68 71 75 74 78 76 75 72 60 75 78 76 74 77 79 80 80 80 80 79 80 79 79 79 79 79 79 79 80 80 80 80 81 81 81 81 81 81 81 81
74 77 74 67 56 51 54 64 65 71 75 76 76 81 77 70 76 71 71 76 76 75 76 78 80 80 80 79 79 79 79 79 79 79 79 79 79 79 80 80 80 81 81 81 81 81 81 81 81
77 81 69 61 52 52 55 64 69 74 76 74 69 76 79 71 74 75 76 76 76 74 75 78 80 79 79 80 79 79 79 79 79 79 79 79 79 79 79 79 80 81 81 81 81 81 80 80 80
77 72 68 59 57 62 64 68 70 77 75 76 71 65 80 83 80 77 78 77 74 73 76 79 79 79 79 80 79 79 79 79 79 79 79 79 79 79 79 79 79 80 80 81 80 80 80 80 80
72 66 57 53 59 63 67 72 74 76 75 70 68 65 74 80 80 78 78 77 73 73 76 78 79 79 80 80 80 79 79 79 79 79 79 79 79 79 79 79 79 79 80 80 80 80 79 79 79
66 64 52 52 59 67 71 74 75 72 74 68 68 68 72 78 77 78 78 75 76 74 75 77 79 79 79 79 79 79 79 79 79 79 79 79 79 79 79 79 79 79 79 80 80 79 79 79 79
62 57 53 57 60 68 68 73 73 76 71 68 72 69 71 76 80 79 77 76 76 76 75 76 77 78 79 79 79 79 78 78 78 78 78 78 78 78 79 79 79 79 79 79 79 79 79 79 79
65 61 53 57 62 63 73 73 79 77 75 78 76 68 67 78 82 79 76 74 74 74 73 71 75 75 75 77 79 79 78 78 78 78 78 78 78 78 78 78 78 79 79 79 79 79 79 79 79
68 54 51 56 61 63 68 69 73 76 77 78 73 70 77 84 79 75 72 72 71 73 71 70 70 71 72 73 78 78 79 78 78 78 78 76 72 73 76 78 79 79 79 80 80 80 79 79 79
63 52 58 66 67 70 70 70 70 71 68 63 64 69 80 80 77 72 70 68 69 69 71 72 71 71 71 78 75 72 75 74 73 72 72 72 71 71 78 78 79 79 80 80 79 79 79 80 77
60 57 66 73 73 75 70 66 71 69 62 63 62 65 76 76 76 74 72 71 70 71 72 72 71 72 72 75 72 72 72 71 70 71 71 70 74 71 73 74 75 73 77 75 76 76 76 75 75
60 68 68 72 76 73 72 71 70 70 69 69 69 70 77 78 77 76 74 74 73 72 73 73 74 73 73 76 72 72 71 70 70 71 72 70 70 71 72 72 72 73 73 73 72 72 74 74 76
62 68 72 76 72 70 72 69 64 65 69 70 71 72 73 80 79 80 79 78 76 74 75 75 76 75 76 74 73 72 73 73 71 70 72 71 70 70 71 70 71 70 70 70 69 69 70 71 72
69 68 70 71 70 70 70 64 67 66 71 71 72 72 77 80 79 79 79 77 77 77 77 78 78 76 77 75 72 74 71 70 71 69 69 69 68 69 69 67 67 67 68 67 67 67 67 67 69
69 64 68 69 69 69 73 60 61 68 67 68 67 72 77 81 81 79 80 78 79 76 78 79 75 74 75 72 72 72 73 72 70 68 68 68 67 66 67 65 65 64 65 66 66 66 66 65 68
64 59 54 65 71 74 72 59 62 67 66 64 67 69 73 80 81 80 81 80 80 73 76 79 81 73 71 71 69 72 70 69 67 66 67 67 67 65 64 63 62 63 62 63 63 63 63 63 62
56 51 56 62 67 69 69 62 61 67 67 65 68 72 76 79 78 76 79 78 75 76 76 73 73 72 71 70 69 70 67 67 65 64 64 64 65 65 63 61 61 61 61 60 61 60 61 60 60
52 52 54 58 68 65 61 64 62 67 68 69 70 73 75 76 73 74 76 78 76 76 76 72 72 71 70 71 69 67 65 63 63 62 62 62 63 64 62 60 60 60 59 58 58 59 59 58 58
60 58 57 66 73 63 64 63 63 65 67 66 67 68 69 69 70 70 70 71 69 67 70 70 69 68 70 69 67 64 60 60 60 61 61 61 61 62 60 59 59 58 57 56 56 56 58 57 55
62 58 58 63 70 64 65 63 63 63 65 67 67 66 67 65 65 67 68 69 70 67 67 67 67 65 66 66 63 63 61 57 58 56 60 60 60 59 59 58 56 56 55 54 53 53 54 54 53
59 54 56 58 67 63 61 59 63 68 67 70 69 69 68 65 66 67 68 68 71 68 66 66 65 65 65 64 65 62 60 57 55 56 56 57 60 60 57 56 55 53 52 51 51 51 52 52 53
52 64 64 63 58 50 61 46 57 57 56 58 58 60 66 68 72 70 70 69 71 68 67 67 67 66 64 64 64 62 59 57 55 54 54 55 58 58 56 55 53 52 51 50 51 51 49 50 50
58 65 61 61 56 51 50 45 45 53 51 53 56 58 59 62 68 69 71 70 70 67 66 66 66 64 64 63 62 63 63 58 58 59 58 57 54 56 56 54 52 51 50 49 49 49 48 47 47
67 61 55 52 49 42 45 44 38 44 48 52 56 57 59 59 62 66 67 67 65 66 65 65 63 63 63 63 62 60 58 57 55 55 56 55 52 52 53 53 51 50 49 49 48 48 48 47 46
62 48 37 38 37 38 50 45 42 50 54 54 53 55 60 60 63 67 64 64 64 63 64 63 62 60 61 60 61 59 58 57 56 56 56 53 49 48 49 50 50 49 49 49 48 48 47 46 45
52 47 37 30 33 35 50 41 43 55 56 57 57 57 60 57 60 64 63 63 63 62 61 60 59 57 58 58 58 58 59 57 57 57 54 50 51 50 50 49 50 50 50 49 48 46 47 46 46
52 44 49 38 40 36 40 50 53 55 54 55 54 54 54 56 57 56 57 60 60 59 58 58 57 56 56 55 55 57 59 58 55 56 54 50 49 51 50 50 49 49 49 49 47 46 46 46 45
53 56 42 38 29 29 39 42 39 46 48 51 52 51 52 54 54 55 55 55 55 56 56 56 55 54 55 56 56 56 55 56 55 53 50 49 49 49 49 49 49 49 49 48 47 45 46 46 45
46 42 43 40 38 32 30 34 47 45 47 48 50 53 53 52 53 54 54 54 54 54 54 54 53 52 51 51 54 54 54 54 53 52 51 52 50 49 49 49 49 49 48 47 46 46 47 47 46
51 44 41 33 34 36 36 37 49 46 46 49 50 52 52 49 49 50 52 49 49 50 51 50 50 49 50 52 52 52 51 53 52 51 47 49 47 48 49 49 51 51 49 48 48 49 49 48 47
MSLP
1011.10 1011.37 1011.44 1011.69 1012.98 1013.39 1013.03 1011.97 1010.85 1010.24 1009.97 1010.60 1010.67 1009.66 1008.57 1008.58 1009.73 1011.94 1011.48 1012.60 1013.83 1014.62 1014.64 1014.90 1015.05 1015.41 1015.69 1016.07 1016.32 1016.47 1016.77 1016.93 1016.92 1016.99 1017.19 1017.33 1017.34 1017.44 1017.59 1017.66 1017.80 1017.88 1017.84 1017.90 1018.04 1017.97 1018.06 1018.12 1018.19
1011.03 1011.64 1011.83 1012.20 1013.20 1013.53 1012.89 1011.57 1010.62 1009.84 1010.54 1010.56 1010.28 1010.01 1010.12 1009.60 1010.27 1011.57 1012.53 1013.00 1013.40 1014.16 1014.78 1014.84 1015.05 1015.31 1015.66 1016.09 1016.42 1016.57 1016.84 1017.04 1017.11 1017.21 1017.35 1017.51 1017.61 1017.70 1017.75 1017.81 1017.86 1017.89 1017.93 1018.02 1018.10 1018.03 1018.00 1018.15 1018.28
1010.76 1010.89 1012.07 1012.46 1013.05 1012.55 1011.96 1011.23 1010.18 1010.36 1010.37 1010.48 1011.25 1011.02 1010.72 1010.21 1010.84 1011.44 1012.23 1013.05 1013.56 1014.01 1014.59 1014.73 1015.06 1015.40 1015.66 1016.16 1016.39 1016.57 1016.88 1017.10 1017.19 1017.30 1017.44 1017.57 1017.72 1017.85 1017.85 1017.96 1018.01 1017.97 1017.99 1018.08 1018.16 1018.07 1017.98 1018.03 1018.34
1010.62 1011.33 1011.79 1011.99 1012.04 1010.84 1010.70 1010.29 1009.91 1010.18 1010.73 1011.76 1012.98 1012.61 1010.51 1009.58 1010.08 1011.13 1012.30 1012.92 1013.66 1014.02 1014.19 1014.52 1014.99 1015.36 1015.71 1016.05 1016.39 1016.56 1016.82 1017.09 1017.28 1017.34 1017.51 1017.62 1017.77 1017.93 1017.96 1018.03 1018.09 1018.07 1018.00 1018.13 1018.19 1018.08 1017.96 1017.93 1018.15
1010.36 1011.33 1011.89 1011.76 1010.92 1010.02 1009.86 1009.60 1009.13 1008.61 1010.55 1012.13 1013.06 1012.65 1011.30 1010.68 1010.30 1011.44 1012.66 1013.44 1013.49 1014.13 1014.24 1014.49 1014.86 1015.21 1015.62 1015.94 1016.36 1016.67 1016.87 1017.09 1017.32 1017.47 1017.63 1017.75 1017.75 1017.92 1018.04 1018.07 1018.06 1018.05 1018.01 1018.04 1018.09 1017.92 1017.87 1017.93 1018.16
1010.72 1011.40 1011.95 1011.42 1010.36 1009.70 1009.20 1008.96 1009.47 1009.37 1009.95 1011.73 1011.43 1012.44 1012.53 1011.42 1010.99 1012.17 1012.69 1013.56 1013.95 1014.28 1014.41 1014.65 1014.91 1015.23 1015.61 1015.98 1016.23 1016.63 1016.91 1017.14 1017.23 1017.39 1017.62 1017.75 1017.74 1017.88 1017.96 1017.99 1018.00 1018.01 1017.95 1017.99 1017.99 1017.85 1017.91 1018.11 1018.17
1010.82 1011.56 1011.37 1010.53 1009.65 1009.46 1008.78 1009.04 1009.28 1008.56 1009.48 1011.33 1012.10 1012.42 1012.68 1011.45 1011.22 1012.06 1012.92 1013.42 1014.08 1014.58 1014.86 1014.95 1015.14 1015.37 1015.66 1015.93 1016.32 1016.66 1016.93 1017.13 1017.28 1017.37 1017.54 1017.59 1017.62 1017.75 1017.86 1017.95 1017.92 1017.94 1017.88 1017.88 1017.96 1017.87 1017.94 1017.93 1018.16
1010.20 1011.16 1010.86 1009.89 1009.02 1008.79 1007.99 1009.03 1008.67 1009.18 1009.13 1009.25 1011.85 1012.44 1012.14 1010.78 1011.30 1012.73 1013.50 1013.78 1014.37 1014.70 1014.80 1015.24 1015.34 1015.50 1015.76 1016.02 1016.33 1016.67 1016.97 1017.10 1017.32 1017.39 1017.46 1017.58 1017.67 1017.77 1017.81 1017.93 1017.92 1017.91 1017.82 1017.89 1017.95 1017.90 1017.86 1017.79 1017.94
1009.51 1010.56 1010.53 1009.43 1008.65 1008.27 1008.79 1009.12 1009.09 1009.52 1009.50 1010.79 1012.53 1013.53 1012.31 1010.82 1011.50 1012.57 1013.75 1014.32 1014.76 1015.06 1015.11 1015.32 1015.55 1015.74 1015.88 1016.14 1016.31 1016.64 1016.83 1017.02 1017.24 1017.36 1017.44 1017.59 1017.74 1017.79 1017.77 1017.69 1017.74 1017.85 1017.76 1017.81 1017.91 1017.88 1017.80 1017.74 1017.58
1009.37 1009.87 1009.59 1008.34 1007.87 1007.57 1008.24 1008.41 1008.69 1009.49 1010.28 1012.47 1014.13 1013.03 1011.30 1011.32 1011.48 1011.96 1012.85 1013.69 1014.32 1014.77 1015.09 1015.23 1015.58 1015.69 1015.97 1016.16 1016.34 1016.66 1016.68 1016.91 1017.13 1017.33 1017.46 1017.58 1017.66 1017.74 1017.73 1017.64 1017.67 1017.67 1017.54 1017.65 1017.93 1017.88 1017.58 1017.73 1017.83
1008.56 1008.63 1008.24 1007.16 1006.85 1006.96 1007.33 1008.13 1008.85 1009.40 1010.49 1011.87 1013.82 1010.89 1012.46 1012.37 1011.82 1012.11 1012.73 1013.12 1013.47 1014.12 1014.75 1015.08 1015.46 1015.59 1015.82 1016.04 1016.47 1016.77 1016.78 1016.85 1016.99 1017.17 1017.40 1017.58 1017.56 1017.69 1017.75 1017.66 1017.69 1017.92 1017.76 1017.74 1017.91 1017.90 1017.76 1017.86 1017.98
1008.52 1007.60 1007.21 1006.32 1005.92 1006.14 1006.52 1007.34 1008.71 1009.00 1009.33 1010.64 1012.02 1012.22 1010.71 1011.41 1011.17 1011.38 1012.22 1012.81 1013.24 1014.02 1014.31 1014.79 1015.08 1015.38 1015.65 1015.85 1016.20 1016.47 1016.79 1016.89 1016.96 1016.88 1017.09 1017.50 1017.73 1017.44 1017.39 1017.42 1017.79 1018.00 1018.00 1018.00 1018.10 1018.23 1018.11 1017.99 1018.09
1007.75 1007.10 1006.30 1005.61 1005.55 1005.75 1006.10 1007.05 1008.38 1009.60 1009.66 1010.04 1010.00 1010.63 1009.83 1010.26 1010.74 1010.24 1010.66 1011.60 1012.26 1013.11 1013.69 1014.38 1014.85 1015.15 1015.18 1015.56 1015.82 1016.11 1016.39 1016.59 1016.79 1016.92 1017.14 1017.43 1017.41 1017.48 1017.54 1017.67 1018.05 1018.17 1018.21 1018.35 1018.48 1018.68 1018.62 1018.59 1018.62
1006.66 1006.42 1005.76 1005.05 1004.92 1005.03 1005.84 1007.84 1007.74 1010.72 1010.18 1009.51 1008.50 1007.21 1006.69 1007.82 1009.08 1009.74 1009.80 1010.84 1011.50 1012.28 1013.05 1013.48 1014.36 1014.56 1014.76 1015.36 1015.48 1015.53 1016.11 1016.50 1016.88 1017.26 1017.51 1017.33 1017.41 1017.58 1017.88 1018.22 1018.34 1018.56 1018.54 1018.59 1018.66 1018.81 1018.91 1019.01 1019.06
1006.38 1006.04 1005.25 1004.52 1004.14 1004.33 1004.76 1007.48 1008.18 1008.62 1009.82 1009.45 1008.23 1007.07 1007.52 1007.60 1008.43 1009.06 1009.23 1009.90 1010.74 1011.79 1012.33 1012.99 1013.77 1014.10 1014.28 1014.89 1015.06 1015.29 1015.93 1016.43 1017.00 1017.50 1017.43 1017.49 1017.69 1017.84 1018.17 1018.63 1018.89 1018.95 1018.82 1018.65 1018.61 1018.71 1018.84 1019.21 1019.43
1006.55 1006.41 1006.04 1004.49 1004.18 1003.57 1004.45 1005.81 1006.80 1007.81 1008.78 1008.76 1008.16 1007.78 1007.41 1006.98 1007.27 1008.06 1008.74 1009.45 1010.13 1010.92 1011.80 1012.51 1013.17 1013.70 1013.91 1014.18 1014.85 1015.10 1015.69 1016.57 1017.08 1017.45 1017.63 1017.87 1018.08 1018.11 1018.48 1018.75 1019.09 1019.16 1019.12 1019.01 1019.09 1019.22 1019.34 1019.60 1019.80
1007.30 1007.09 1006.47 1004.90 1003.97 1003.78 1004.18 1005.13 1006.52 1007.33 1007.60 1007.57 1007.50 1007.31 1006.73 1006.70 1007.06 1007.34 1007.78 1008.87 1009.76 1010.15 1011.15 1012.21 1012.78 1013.24 1013.86 1014.23 1015.00 1015.40 1015.98 1016.66 1017.32 1017.60 1017.91 1018.21 1018.39 1018.60 1018.82 1019.04 1019.25 1019.17 1019.34 1019.57 1019.70 1019.87 1019.90 1020.02 1020.00
1007.62 1007.16 1006.37 1005.56 1003.93 1003.70 1004.11 1004.58 1005.89 1006.86 1007.25 1006.72 1006.75 1006.95 1007.01 1007.11 1007.13 1007.38 1007.85 1008.67 1009.62 1010.02 1011.00 1011.94 1012.62 1013.06 1013.59 1014.23 1015.20 1016.12 1016.80 1017.35 1017.67 1018.04 1018.26 1018.47 1018.79 1018.87 1019.16 1019.43 1019.52 1019.53 1019.70 1020.12 1020.23 1020.32 1020.36 1020.46 1020.42
1007.31 1007.07 1006.41 1004.87 1003.74 1004.24 1004.00 1004.51 1005.15 1005.87 1006.35 1006.96 1006.82 1006.99 1007.53 1007.45 1007.90 1008.13 1008.65 1009.44 1010.41 1011.04 1011.49 1012.12 1012.54 1013.09 1013.29 1014.06 1015.12 1016.15 1017.13 1017.73 1018.15 1018.36 1018.39 1018.61 1019.04 1019.37 1019.55 1019.84 1019.93 1020.03 1020.27 1020.55 1020.59 1020.63 1020.75 1020.87 1020.62
1007.31 1006.93 1006.29 1005.10 1003.85 1004.03 1003.87 1004.30 1004.45 1005.96 1006.26 1005.90 1005.90 1006.99 1007.43 1007.77 1008.75 1009.40 1009.49 1009.22 1009.46 1010.99 1011.74 1011.95 1012.35 1013.06 1013.36 1013.86 1014.76 1015.79 1016.91 1017.78 1018.17 1018.56 1018.77 1019.14 1019.26 1019.83 1020.02 1020.26 1020.46 1020.61 1020.84 1020.94 1020.88 1020.86 1021.15 1021.19 1020.94
1007.00 1007.93 1007.44 1006.17 1004.35 1003.88 1004.33 1005.02 1005.31 1006.57 1007.14 1006.45 1006.82 1005.74 1006.77 1006.92 1008.51 1007.52 1007.14 1007.22 1008.28 1008.86 1010.23 1011.13 1011.28 1012.41 1013.51 1013.98 1014.99 1016.43 1017.32 1018.01 1018.50 1018.86 1019.24 1019.58 1019.71 1020.08 1020.37 1020.61 1020.84 1021.18 1021.32 1021.52 1021.41 1021.23 1021.20 1021.47 1021.38
1007.35 1007.35 1006.60 1005.84 1005.53 1005.71 1005.67 1007.03 1008.34 1008.80 1008.86 1009.94 1010.54 1010.13 1009.17 1004.39 1003.93 1005.45 1005.23 1005.99 1007.03 1008.41 1009.52 1010.60 1011.66 1011.73 1013.01 1013.66 1014.71 1015.81 1016.64 1017.47 1018.45 1018.85 1019.35 1019.78 1020.03 1020.44 1020.73 1020.99 1021.21 1021.50 1021.82 1021.90 1021.78 1021.58 1021.57 1021.64 1021.92
1008.18 1007.46 1007.12 1006.96 1006.79 1007.09 1009.08 1009.77 1011.33 1011.15 1010.79 1011.09 1011.31 1011.54 1010.76 1009.06 1007.55 1006.22 1004.65 1004.74 1006.25 1008.13 1009.21 1010.36 1011.38 1011.93 1013.09 1013.89 1014.51 1015.57 1016.76 1017.40 1018.16 1018.97 1019.62 1020.06 1020.16 1020.55 1020.91 1021.31 1021.55 1021.97 1022.13 1022.14 1022.05 1021.98 1021.97 1022.04 1022.34
1008.25 1008.03 1007.95 1008.09 1008.50 1009.50 1011.31 1011.94 1013.41 1013.20 1013.82 1013.15 1012.59 1011.60 1010.07 1008.94 1007.90 1007.28 1007.83 1007.47 1007.47 1008.59 1009.22 1010.38 1011.12 1012.31 1013.25 1014.03 1015.08 1015.58 1016.62 1017.46 1018.51 1019.33 1019.89 1020.39 1020.64 1020.98 1021.13 1021.67 1022.09 1022.31 1022.28 1022.38 1022.53 1022.56 1022.62 1022.70 1022.74
1009.12 1009.75 1010.93 1011.12 1011.50 1011.91 1011.87 1012.57 1013.97 1014.48 1014.56 1014.34 1013.82 1012.77 1010.90 1008.57 1004.73 1006.12 1007.75 1008.28 1007.81 1008.66 1009.99 1010.83 1011.63 1012.99 1013.82 1014.70 1015.76 1016.36 1016.77 1017.51 1018.36 1019.14 1019.90 1020.52 1021.18 1021.43 1021.61 1021.66 1022.08 1022.45 1022.43 1022.46 1022.68 1023.00 1023.14 1023.19 1023.34
1010.99 1011.66 1013.09 1013.97 1014.27 1013.55 1012.70 1013.13 1014.39 1014.55 1014.59 1014.44 1013.49 1013.13 1012.09 1010.37 1007.95 1007.17 1007.98 1008.75 1009.61 1010.03 1010.64 1011.43 1011.76 1013.36 1014.56 1015.27 1016.23 1017.01 1017.26 1017.71 1018.34 1019.02 1019.96 1020.87 1021.28 1021.54 1021.82 1021.98 1022.10 1022.42 1022.53 1022.66 1022.88 1023.27 1023.60 1023.68 1023.83
1012.12 1012.92 1013.10 1014.43 1014.93 1015.31 1014.07 1013.22 1013.44 1013.91 1013.86 1014.21 1013.46 1013.06 1013.08 1012.49 1011.56 1010.81 1010.64 1010.55 1010.19 1010.88 1011.49 1012.62 1011.82 1012.92 1014.66 1015.74 1016.65 1017.63 1017.74 1017.95 1018.50 1019.03 1020.18 1021.07 1021.51 1021.57 1022.15 1022.18 1022.31 1022.79 1022.94 1023.04 1023.18 1023.48 1023.84 1024.06 1024.24
1013.38 1013.79 1014.21 1015.46 1016.42 1016.28 1014.94 1015.05 1015.86 1015.32 1015.49 1015.56 1015.29 1015.15 1014.04 1014.08 1012.95 1013.33 1012.84 1013.42 1012.24 1012.42 1012.56 1013.62 1013.31 1013.07 1015.01 1016.18 1017.12 1018.21 1018.66 1018.87 1019.36 1019.53 1020.44 1021.22 1021.68 1021.96 1022.23 1022.48 1022.66 1022.92 1023.25 1023.38 1023.41 1023.75 1024.08 1024.36 1024.59
1014.62 1015.24 1015.99 1016.75 1017.13 1017.19 1016.85 1016.95 1017.07 1017.09 1016.82 1016.47 1016.30 1015.43 1015.25 1015.80 1014.81 1014.88 1014.78 1014.69 1014.85 1014.49 1014.49 1015.79 1015.86 1016.54 1016.89 1017.88 1018.20 1018.54 1019.38 1019.64 1020.22 1020.38 1020.88 1021.12 1021.57 1022.07 1022.26 1022.53 1023.01 1023.22 1023.69 1023.72 1023.69 1023.85 1024.27 1024.63 1024.86
1015.73 1016.44 1016.96 1017.83 1018.04 1017.96 1017.69 1017.83 1017.58 1017.79 1017.83 1017.22 1017.01 1016.44 1016.49 1016.09 1016.11 1015.38 1015.90 1016.02 1016.11 1016.90 1016.99 1016.13 1016.40 1017.35 1018.10 1020.09 1019.38 1020.07 1020.08 1020.50 1020.76 1020.92 1021.44 1021.25 1021.75 1021.91 1022.74 1022.92 1023.20 1023.23 1023.90 1023.80 1023.88 1023.84 1024.36 1024.70 1025.02
Wind_Speed
8 6 1 3 4 5 4 5 3 6 1 4 7 6 10 5 6 6 10 15 20 14 14 17 20 20 19 17 15 15 14 15 16 16 15 14 14 13 11 10 8 8 9 8 7 8 6 7 8
5 3 4 2 4 2 5 5 8 3 8 11 13 5 9 3 6 13 11 19 20 16 12 15 20 20 19 17 14 15 16 16 16 15 14 14 12 11 10 8 7 7 6 6 5 4 4 4 5
3 3 4 4 4 7 6 5 11 9 16 12 6 9 8 2 14 13 17 20 18 15 12 16 20 20 19 17 16 16 16 16 15 15 14 13 12 9 8 6 5 5 4 4 3 1 2 1 2
4 4 4 2 9 7 6 6 7 9 13 12 9 14 7 5 12 11 22 21 17 14 13 19 21 20 19 17 17 17 16 16 15 15 13 12 10 8 6 5 3 2 1 1 0 2 3 4 3
2 3 1 4 7 3 3 5 6 4 8 8 7 9 6 2 18 25 22 18 18 14 14 16 21 20 19 19 18 16 16 15 14 13 12 11 9 7 6 4 3 2 2 2 3 4 6 5 5
2 3 2 6 5 3 4 9 5 6 8 5 1 14 14 16 24 21 20 18 15 15 14 15 19 19 18 17 17 16 15 14 14 12 11 10 8 7 6 5 5 5 5 5 6 7 7 6 6
6 4 6 6 5 6 6 5 5 3 9 8 4 17 4 17 21 20 19 18 16 13 13 12 12 15 18 17 17 16 15 14 13 11 10 9 8 7 6 6 6 7 7 7 6 6 7 6 5
5 5 4 6 6 7 7 6 6 1 8 13 10 7 15 17 22 18 16 16 16 13 9 8 10 9 10 11 17 16 15 14 12 11 10 8 6 6 5 6 7 7 7 5 5 5 5 6 6
4 3 5 7 3 4 9 7 2 4 8 4 8 25 10 20 24 19 15 14 12 11 11 8 6 7 6 7 11 14 16 15 13 11 10 6 3 5 6 7 8 7 8 6 4 5 6 8 9
5 5 9 8 4 10 9 6 10 5 17 8 20 42 18 19 23 21 19 16 16 15 13 11 9 10 8 8 8 6 8 6 5 5 5 4 5 5 6 8 9 9 9 6 6 7 9 5 4
5 6 8 13 9 9 4 7 7 9 6 13 23 13 6 14 18 18 17 17 17 17 13 14 12 11 11 9 6 4 4 4 4 6 5 5 3 4 4 3 2 2 6 3 4 4 3 5 4
6 9 7 11 9 7 7 11 9 12 9 20 20 23 17 15 18 19 17 16 16 16 16 16 15 13 12 7 8 7 5 4 4 5 7 4 2 3 3 4 3 1 2 4 4 3 5 6 7
7 10 11 15 10 8 4 7 11 14 22 25 27 21 19 15 16 18 20 19 18 17 17 16 15 14 13 10 8 7 7 6 4 2 4 4 4 4 3 4 4 4 4 4 4 4 4 6 6
8 7 9 8 9 6 10 13 10 13 24 30 28 33 31 24 18 17 19 19 18 18 16 17 15 14 11 10 9 7 4 5 5 4 4 6 5 4 5 4 4 4 3 4 4 4 5 5 5
5 7 10 6 4 5 7 8 13 32 17 19 13 15 18 19 15 18 18 19 17 13 16 18 13 11 13 8 7 6 6 6 6 5 5 7 6 6 6 4 4 4 4 6 5 5 5 5 5
7 4 6 7 8 8 9 10 6 27 24 21 16 14 17 20 20 18 19 17 16 13 17 17 13 10 9 9 5 7 7 6 5 5 5 7 7 6 5 4 4 3 4 4 4 4 4 4 4
5 4 7 12 3 5 6 10 12 23 21 21 21 22 22 20 15 11 20 18 15 18 17 12 12 12 11 10 8 8 9 7 5 5 5 7 7 6 5 4 4 5 4 5 3 4 3 2 3
7 4 5 8 9 0 2 8 18 24 20 24 21 17 16 16 12 12 17 18 16 15 16 13 11 13 11 10 10 8 8 6 5 5 6 7 5 6 5 4 5 4 4 4 3 3 4 2 1
6 5 8 13 14 2 9 6 11 23 17 14 14 15 10 11 7 10 11 12 10 7 11 12 13 10 11 10 10 7 6 5 5 5 8 8 7 6 6 4 5 5 5 4 3 1 3 4 3
13 12 14 11 13 7 7 8 2 19 24 25 20 12 15 10 10 8 9 11 15 10 11 12 11 8 7 7 4 5 6 4 5 4 7 7 8 6 6 5 5 5 4 5 5 4 2 2 4
5 6 9 14 9 2 3 9 8 4 8 14 11 18 19 24 16 24 26 26 21 21 17 14 15 12 7 11 10 8 8 5 4 4 5 5 7 5 6 6 5 5 4 4 4 3 3 3 3
6 10 16 15 6 5 5 5 14 15 22 22 19 17 11 33 33 29 29 28 22 18 16 15 12 13 10 10 12 15 7 5 3 4 4 5 6 5 6 6 6 6 4 5 4 4 3 3 2
5 10 11 6 6 5 11 5 8 16 18 22 19 15 17 19 17 20 29 23 20 19 18 16 13 11 10 7 9 9 8 6 7 7 9 6 6 7 7 6 7 6 4 4 6 6 6 4 3
11 12 6 4 3 5 1 2 6 7 6 11 14 18 21 21 17 15 8 10 15 14 16 14 14 11 9 9 6 10 12 11 8 7 8 6 5 5 7 7 6 5 5 5 5 6 7 6 5
14 9 7 9 9 4 11 6 3 1 4 5 11 17 21 26 15 15 11 13 14 17 14 12 14 11 9 10 8 9 12 12 12 10 8 9 4 3 5 6 5 4 5 6 6 6 6 5 5
6 4 5 4 3 6 3 3 5 3 6 5 11 13 19 26 23 11 6 10 11 13 14 15 18 16 13 12 11 9 10 6 8 9 8 5 5 5 5 6 6 6 6 6 6 4 4 6 6
8 6 6 4 2 2 5 1 4 17 20 21 19 20 19 17 19 21 18 7 11 17 15 13 18 18 14 11 9 7 8 9 7 11 9 5 5 5 6 6 7 6 6 6 7 5 6 6 5
8 7 7 5 3 5 3 4 7 16 15 15 16 13 14 15 16 15 14 14 15 9 15 16 14 16 14 14 11 8 7 9 9 11 11 8 6 6 7 6 7 6 6 6 7 5 5 7 4
7 6 5 1 2 2 3 2 4 5 10 11 10 9 9 8 12 12 11 12 15 13 14 11 15 14 13 11 10 11 10 10 9 10 9 9 7 7 6 7 6 6 6 5 6 7 6 7 6
5 0 3 5 6 3 2 3 6 6 6 7 9 10 5 8 8 12 12 12 13 12 8 12 13 13 11 6 10 8 8 9 8 7 6 6 7 7 6 6 6 6 6 5 6 6 6 7 7
Wind_Direction
148 165 167 54 58 59 286 245 309 254 127 40 314 300 156 109 137 202 138 134 139 144 142 141 135 132 132 133 129 126 121 119 110 107 104 98 94 93 93 94 98 96 92 91 85 83 85 87 90
139 138 31 74 94 137 252 294 271 250 48 23 348 355 316 96 70 123 114 139 142 142 144 141 138 134 135 136 136 129 125 121 116 111 109 103 97 97 96 95 99 101 99 97 91 90 88 84 96
191 188 109 150 157 201 213 209 260 55 61 33 2 351 307 142 118 140 133 137 140 138 145 146 140 139 139 141 139 132 127 124 120 121 117 112 110 108 104 102 102 119 118 108 94 53 13 359 84
165 24 360 154 232 252 190 202 236 136 79 61 51 298 293 175 140 132 140 142 140 140 147 142 142 145 144 142 140 137 134 131 131 130 128 127 129 129 127 132 140 150 134 101 89 289 289 293 310
48 83 244 230 242 253 188 185 203 0 106 74 83 256 290 19 119 132 142 143 142 143 144 144 149 149 147 144 143 142 139 135 136 137 138 142 142 148 154 157 182 227 256 260 263 264 270 286 324
25 101 119 235 220 136 203 196 194 139 121 84 23 256 268 147 133 145 141 144 144 140 145 148 155 149 149 147 146 146 142 144 146 149 153 158 161 172 180 192 209 231 243 253 264 273 287 310 325
142 98 221 233 245 192 218 164 207 213 116 158 209 210 171 156 143 144 144 140 143 143 146 150 154 154 151 146 147 149 151 153 156 161 167 172 182 192 204 219 234 250 249 248 257 274 289 305 311
127 117 247 245 258 256 217 151 212 348 214 158 140 241 193 168 146 138 137 138 142 146 146 149 158 153 148 149 151 153 157 158 167 177 181 185 197 213 236 245 259 266 260 260 267 277 301 314 303
120 99 237 247 233 212 130 197 113 300 64 159 17 306 210 158 134 133 135 136 142 151 154 158 148 148 145 151 160 161 165 171 183 189 196 191 207 228 234 237 243 267 273 275 293 316 323 331 328
140 153 226 228 226 276 176 167 169 160 96 24 347 304 187 145 148 148 151 155 159 161 168 166 165 163 158 169 170 174 177 182 190 193 203 192 217 223 230 242 239 249 263 285 331 321 314 348 9
206 204 228 272 254 248 167 152 150 125 111 145 216 1 271 158 154 154 158 162 169 167 169 175 174 174 171 179 175 185 194 186 201 195 195 202 224 247 223 243 246 232 283 338 342 348 43 34 34
243 262 223 260 245 262 266 121 135 176 155 169 184 191 208 193 173 163 164 168 164 172 176 179 182 179 185 179 181 188 190 190 205 207 192 171 196 249 204 203 140 200 320 41 41 27 21 35 33
186 248 256 251 255 231 104 148 143 139 139 150 164 175 212 211 183 170 168 170 169 172 178 183 181 184 188 181 183 186 194 189 195 164 136 156 107 83 99 82 100 76 66 77 59 40 35 34 33
255 258 258 275 246 214 130 133 110 169 159 167 172 179 190 192 185 180 165 172 171 174 176 181 180 186 181 185 185 187 157 138 117 103 134 94 91 70 73 68 77 80 88 77 71 49 42 43 39
254 330 327 289 247 252 126 148 159 174 188 195 212 188 195 191 180 184 174 169 174 168 168 183 165 166 174 174 170 142 138 121 118 117 93 86 77 91 101 87 66 50 62 76 63 45 45 44 30
354 41 6 309 317 266 109 266 188 172 181 196 213 215 206 188 188 170 175 176 179 152 165 175 167 157 137 130 122 121 116 111 107 99 82 76 70 81 92 97 85 89 72 68 63 44 52 47 40
350 259 300 314 254 259 148 262 174 175 186 192 196 199 198 193 190 168 171 171 169 165 167 162 153 144 132 119 114 107 99 98 87 82 81 76 72 71 80 76 78 69 64 52 49 52 67 42 21
245 259 260 262 286 95 297 251 161 190 195 187 191 193 194 191 185 158 163 167 167 157 160 150 149 142 132 123 112 96 95 88 90 89 84 74 61 74 79 73 75 66 71 49 38 76 57 86 340
241 270 261 270 274 308 261 261 205 193 192 205 194 200 186 162 138 114 107 112 97 80 137 148 145 150 138 136 131 122 121 107 87 82 81 76 68 61 73 67 70 60 64 66 31 83 99 26 9
267 255 270 285 264 170 285 308 359 170 207 206 197 188 187 121 103 95 118 139 147 156 163 154 149 137 135 130 104 113 127 91 102 100 83 77 76 65 77 75 80 70 76 48 35 51 110 47 12
2 43 298 266 284 110 19 331 336 129 333 224 237 190 159 145 173 179 165 171 176 169 162 157 143 131 118 114 105 97 100 94 88 90 89 84 85 87 81 79 86 71 71 62 34 35 82 137 360
19 338 335 326 337 273 74 259 51 22 37 28 6 353 263 181 191 184 181 176 179 162 151 145 140 124 128 132 132 148 145 142 138 125 116 107 101 96 88 87 87 82 73 64 47 31 49 88 61
309 333 319 312 300 66 15 50 354 27 8 356 356 343 326 301 265 207 186 172 164 153 147 143 136 121 129 122 132 144 141 121 127 122 124 115 95 89 82 88 81 87 89 79 73 59 58 53 84
325 349 18 1 35 70 313 224 345 23 353 335 341 339 333 316 279 225 238 169 154 145 140 141 133 128 116 118 120 130 137 139 130 140 124 116 102 100 94 91 96 98 87 80 74 73 66 62 67
3 30 358 353 8 268 357 20 203 224 9 338 333 338 349 337 279 193 182 178 152 141 133 129 123 110 104 109 131 138 139 147 144 143 136 135 115 108 123 118 110 96 97 93 86 74 70 53 72
342 49 139 239 244 277 320 209 148 25 28 323 14 15 3 8 11 38 138 151 145 131 125 124 116 107 98 97 115 145 139 129 135 133 139 123 133 130 127 112 105 99 103 91 84 79 75 68 70
312 7 203 140 334 328 268 270 105 10 14 2 7 11 13 20 28 35 28 39 133 120 115 115 125 114 100 88 88 93 102 112 129 137 125 114 117 121 111 106 95 87 94 95 91 86 91 76 73
76 321 15 5 164 252 301 72 18 357 350 358 6 354 12 28 49 33 47 28 47 53 99 98 78 91 107 103 96 87 83 94 105 112 111 119 113 109 114 105 100 94 108 112 100 88 86 87 72
360 15 8 156 72 322 315 7 324 312 320 336 346 8 20 55 61 62 58 57 57 57 69 78 66 71 63 68 82 90 92 98 100 113 125 132 133 131 118 118 112 104 100 106 99 104 101 93 86
109 167 112 120 288 259 200 243 314 303 353 360 355 343 85 72 75 91 64 60 65 62 82 105 106 105 115 103 96 84 93 96 99 95 92 107 113 113 119 114 111 109 107 106 124 116 114 107 90